Flight Track Log - Related Links

Times and Time Zones

All times are in EDT time to prevent confusion due to time zone crossing. See the SWA267 flight status page for this flight to view local times or setup timezone preferences in your user account.

Time Position Orientation Groundspeed Altitude Reporting Facility
EDT Latitude Longitude Course Direction KTS MPH feet Rate Location/Type
10:15PM 41.8167 -87.7667 98° East 191 220 2,500  Level Chicago TRACON
10:16PM 41.8036 -87.6389 98° East 215 247 4,100 955 Climbing Chicago Center
10:17PM 41.7844 -87.5458 105° East 235 270 5,000 1,366 Climbing Chicago Center
10:18PM 41.7744 -87.4394 97° East 273 314 6,900 3,024 Climbing Chicago Center
10:19PM 41.7717 -87.3314 92° East 289 333 11,200 3,629 Climbing Chicago Center
10:20PM 41.7678 -87.2236 93° East 290 334 14,400 2,878 Climbing Chicago Center
10:21PM 41.7636 -87.1053 93° East 311 358 17,100 2,829 Climbing Chicago Center
10:22PM 41.7617 -86.9750 91° East 339 390 20,200 2,732 Climbing Chicago Center
10:23PM 41.7642 -86.8100 89° East 366 421 22,700 2,195 Climbing Chicago Center
10:24PM 41.7644 -86.6811 90° East 397 457 24,700 2,468 Climbing Chicago Center
10:25PM 41.7658 -86.4978 89° East 409 471 27,800 1,854 Climbing Chicago Center
10:27PM 41.7667 -86.3364 90° East 428 493 28,500 1,707 Climbing Chicago Center
10:28PM 41.7581 -86.1725 94° East 440 506 31,300 1,951 Climbing Chicago Center
10:29PM 41.7494 -86.0136 94° East 430 495 32,500 1,268 Climbing Chicago Center
10:30PM 41.7389 -85.8467 95° East 444 511 33,900 1,210 Climbing Chicago Center
10:31PM 41.7281 -85.6775 95° East 453 521 35,000 537 Climbing Chicago Center
10:32PM 41.7194 -85.5036 94° East 460 529 35,000 -98 Level Chicago Center
10:33PM 41.7028 -85.3114 97° East 466 536 34,800 -976 Descending Chicago Center
10:34PM 41.6928 -85.1450 95° East 469 540 33,000 -1,009 Descending Chicago Center
10:34PM 41.6831 -84.9961 95° East 474 545 33,000  Level Cleveland Center
10:35PM 41.6708 -84.8256 95° East 469 540 33,000  Level Cleveland Center
10:36PM 41.6625 -84.6528 94° East 463 533 33,000  Level Cleveland Center
10:37PM 41.6497 -84.4822 96° East 463 533 33,000  Level Cleveland Center
10:38PM 41.6175 -84.3192 105° East 458 527 33,000  Level Cleveland Center
10:39PM 41.5850 -84.1619 105° East 447 514 33,000  Level Cleveland Center
10:40PM 41.5547 -83.9964 104° East 447 514 33,000  Level Cleveland Center
10:41PM 41.5239 -83.8339 104° East 447 514 33,000  Level Cleveland Center
10:42PM 41.4911 -83.6658 105° East 452 520 33,000  Level Cleveland Center
10:43PM 41.4600 -83.5036 104° East 457 526 33,000  Level Cleveland Center
10:44PM 41.4286 -83.3361 104° East 457 526 33,000  Level Cleveland Center
10:45PM 41.4025 -83.2047 105° East 457 526 33,000  Level Cleveland Center
10:46PM 41.3653 -83.0014 104° East 463 533 33,000  Level Cleveland Center
10:47PM 41.3311 -82.8342 105° East 463 533 33,000  Level Cleveland Center
10:48PM 41.2969 -82.6642 105° East 468 539 33,000  Level Cleveland Center
10:49PM 41.2664 -82.4975 104° East 468 539 33,000  Level Cleveland Center
10:50PM 41.2317 -82.3253 105° East 473 544 33,000  Level Cleveland Center
10:51PM 41.1967 -82.1589 106° East 473 544 33,000 -1,000 Level Cleveland Center
10:52PM 41.1694 -82.0064 103° East 473 544 31,000 -2,500 Descending Cleveland Center
10:53PM 41.1317 -81.8403 107° East 473 544 28,000 -2,900 Descending Cleveland Center
10:54PM 41.0939 -81.6631 106° East 468 539 25,200 -2,650 Descending Cleveland Center
10:55PM 41.0600 -81.5000 105° East 459 528 22,700 -2,400 Descending Cleveland Center
10:56PM 41.0278 -81.3483 106° East 449 517 20,400 -2,500 Descending Cleveland Center
10:57PM 40.9953 -81.1967 106° East 433 498 17,700 -2,500 Descending Cleveland Center
10:58PM 40.9647 -81.0533 106° East 417 480 15,400 -2,100 Descending Cleveland Center
10:59PM 40.9381 -80.9267 106° East 410 472 13,500 -2,000 Descending Cleveland Center
11:00PM 40.8736 -80.8247 130° Southeast 374 430 11,400 -1,650 Descending Cleveland Center
11:01PM 40.8092 -80.7506 139° Southeast 339 390 10,200 -1,100 Descending Cleveland Center
11:02PM 40.7531 -80.6872 139° Southeast 311 358 9,200 -1,385 Descending Cleveland Center
11:03PM 40.6986 -80.6194 137° Southeast 252 290 7,500 -1,792 Descending FAA TRACON SMA TRACON (SMA)
11:04PM 40.6786 -80.6000 144° Southeast 250 288 6,900 -1,650 Descending FAA TRACON SMA TRACON (SMA)
11:04PM 40.6631 -80.5811 137° Southeast 248 285 6,400 -1,385 Descending FAA TRACON SMA TRACON (SMA)
11:04PM 40.6497 -80.5647 137° Southeast 245 282 6,000 -1,500 Descending FAA TRACON SMA TRACON (SMA)
11:05PM 40.6297 -80.5394 136° Southeast 239 275 5,400 -1,463 Descending FAA TRACON SMA TRACON (SMA)
11:05PM 40.6147 -80.5219 138° Southeast 236 272 5,000 -923 Descending FAA TRACON SMA TRACON (SMA)
11:05PM 40.6006 -80.5047 137° Southeast 229 264 4,800 -750 Descending FAA TRACON SMA TRACON (SMA)
11:06PM 40.5839 -80.4844 137° Southeast 213 245 4,500 -1,024 Descending FAA TRACON SMA TRACON (SMA)
11:06PM 40.5739 -80.4714 135° Southeast 203 234 4,100 -1,350 Descending FAA TRACON SMA TRACON (SMA)
11:06PM 40.5600 -80.4553 139° Southeast 192 221 3,600 -1,610 Descending FAA TRACON SMA TRACON (SMA)
11:07PM 40.5450 -80.4372 138° Southeast 191 220 3,000 -900 Descending FAA TRACON SMA TRACON (SMA)
11:07PM 40.5333 -80.4228 137° Southeast 189 217 3,000  Level FAA TRACON SMA TRACON (SMA)
11:07PM 40.5219 -80.4092 138° Southeast 182 209 3,000  Level FAA TRACON SMA TRACON (SMA)
11:08PM 40.5089 -80.3931 137° Southeast 171 197 3,000 -293 Level FAA TRACON SMA TRACON (SMA)
11:08PM 40.5042 -80.3781 112° Southeast 153 176 2,800 -615 Descending FAA TRACON SMA TRACON (SMA)
11:08PM 40.5042 -80.3619 90° East 140 161 2,600 -750 Descending FAA TRACON SMA TRACON (SMA)
11:09PM 40.5036 -80.3442 92° East 119 137 2,300 -732 Descending FAA TRACON SMA TRACON (SMA)
11:09PM 40.5033 -80.3311 92° East 119 137 2,100 -600 Descending FAA TRACON SMA TRACON (SMA)
11:09PM 40.5031 -80.3175 92° East 124 143 1,900 -750 Descending FAA TRACON SMA TRACON (SMA)
11:10PM 40.5025 -80.3000 92° East 123 142 1,600 -615 Descending FAA TRACON SMA TRACON (SMA)
11:10PM 40.5022 -80.2861 92° East 124 143 1,500 -600 Descending FAA TRACON SMA TRACON (SMA)
11:10PM 40.5019 -80.2714 91° East 126 145 1,200 -857 Descending FAA TRACON SMA TRACON (SMA)

Login

Don't have an account? Register now (free) for customized features, flight alerts, and more!